Flagstaff, Arizona, United States (86001)
Lat: 35.20N, Lon: 111.65W
Wx Zone: AZZ015
Local Info
Past Weather Observations for Friday, October 17, 2014

NOTE: This archive is for the closest National Weather Service station to Flagstaff. Information may differ from the station used for current weather conditions.

Click here for Long-term Archive

Time Weather Temperature Dewpoint Humidity Pressure Winds Precip Visibility
23:57
Mostly Cloudy
46°F / 8°C 37°F / 3°C 71% 30.21 in
(1023 mb)
Calm - 10SM
22:57
Overcast
48°F / 9°C 37°F / 3°C 66% 30.21 in
(1023 mb)
Calm - 10SM
21:57
Overcast
48°F / 9°C 37°F / 3°C 66% 30.21 in
(1023 mb)
Calm - 10SM
20:57
Mostly Cloudy
48°F / 9°C 37°F / 3°C 66% 30.21 in
(1023 mb)
Calm - 10SM
19:57
Overcast
48°F / 9°C 37°F / 3°C 66% 30.21 in
(1023 mb)
Calm - 10SM
18:57
Partly Cloudy
50°F / 10°C 37°F / 3°C 62% 30.21 in
(1023 mb)
Calm - 10SM
17:57
Partly Cloudy
54°F / 12°C 37°F / 3°C 54% 30.21 in
(1023 mb)
Calm - 10SM
16:57
Clear
57°F / 14°C 34°F / 1°C 41% 30.18 in
(1022 mb)
SSW 3.5 mph
(SSW 6 kph)
- 10SM
15:57
Clear
57°F / 14°C 36°F / 2°C 44% 30.18 in
(1022 mb)
SW 9.2 mph
(SW 15 kph)
- 10SM
14:57
Overcast
59°F / 15°C 36°F / 2°C 42% 30.18 in
(1022 mb)
SSE 3.5 mph
(SSE 6 kph)
- 10SM
13:57
Partly Cloudy
61°F / 16°C 32°F / 0°C 34% 30.18 in
(1022 mb)
Calm - 10SM
12:57
Clear
61°F / 16°C 30°F / -1°C 31% 30.21 in
(1023 mb)
SW 11.5 mph
(SW 19 kph)
- 10SM
11:57
Clear
59°F / 15°C 32°F / 0°C 36% 30.24 in
(1024 mb)
SSE 6.9 mph
(SSE 11 kph)
- 10SM
10:57
Partly Cloudy
57°F / 14°C 34°F / 1°C 41% 30.24 in
(1024 mb)
SSW 3.5 mph
(SSW 6 kph)
- 10SM
09:57
Overcast
52°F / 11°C 39°F / 4°C 62% 30.24 in
(1024 mb)
Calm - 10SM
08:57
Overcast
45°F / 7°C 37°F / 3°C 76% 30.24 in
(1024 mb)
Calm - 10SM
07:57
Mostly Cloudy
43°F / 6°C 34°F / 1°C 71% 30.24 in
(1024 mb)
Calm - 10SM
06:57
Clear
39°F / 4°C 32°F / 0°C 75% 30.21 in
(1023 mb)
Calm - 10SM
05:57
Clear
37°F / 3°C 30°F / -1°C 75% 30.18 in
(1022 mb)
Calm - 10SM
04:57
Clear
37°F / 3°C 30°F / -1°C 75% 30.18 in
(1022 mb)
Calm - 10SM
03:57
Clear
39°F / 4°C 32°F / 0°C 75% 30.18 in
(1022 mb)
Calm - 10SM
02:57
Clear
39°F / 4°C 32°F / 0°C 75% 30.18 in
(1022 mb)
Calm - 10SM
01:57
Clear
41°F / 5°C 30°F / -1°C 66% 30.18 in
(1022 mb)
Calm - 10SM
00:57
Clear
41°F / 5°C 30°F / -1°C 66% 30.21 in
(1023 mb)
Calm - 10SM
Time Weather Temperature Dewpoint Humidity Pressure Winds Precip Visibility


Weather for websites

WeatherForYou.com, LLC is not responsible for any damages or problems caused by this service. Current weather conditions are obtained from the closest station including government and personal stations which may have varying degrees of accuracy. Weather forecasts are derived from the NOAA NDFD. Like all things, this site belongs to Jesus Christ... He just trusts me to maintain it. If you have any questions or comments email webmaster@weatherforyou.com

Copyright © 2014, WeatherForYou.com LLC. All rights reserved.